EHI
0 0 0 0 0 0 0 0 0 0 0 0 0 0 0 0 0 0 0 0 0 0 0 0 0 0 0 0 0 0 0 0 0 0 0 0 0 0 0 0 0 0 0 0
0 0 0 0 0 0 0 0 0 0 0 0 0 0 0 0 0 0 0 0 0 0 0 0 0 0 0 0 0 0 0 0 0 0 0 0 0 0 0 0 0 0 0 0
0 0 0 0 0 0 0 0 0 0 0 0 0 0 0 0 0 0 0 0 0 0 0 0 0 0 0 0 0 0 0 0 0 0 0 0 0 0 0 0 0 0 0 0
0 0 0 0 0 0 0 0 0 0 0 0 0 0 0 0 0 0 0 0 0 0 0 0 0 0 0 0 0 0 0 0 0 0 0 0 0 0 0 0 0 0 0 0
0 0 0 0 0 0 0 0 0 0 0 0 0 0 0 0 0 0 0 0 0 0 0 0 0 0 0 0 0 0 0 0 0 0 0 0 0 0 0 0 0 0 0 0
0 0 0 0 0 0 0 0 0 0 0 0 0 0 0 0 0 0 0 0 0 0 0 0 0 0 0 0 0 0 0 0 0 0 0 0 0 0 0 0 0 0 0 0
0 0 0 0 0 0 0 0 0 0 0 0 0 0 0 0 0 0 0 0 0 0 0 0 0 0 0 0 0 0 0 0 0 0 0 0 0 0 0 0 0 0 0 0
0 0 0 0 0 0 0 0 0 0 0 0 0 0 0 0 0 0 0 0 0 0 0 0 0 0 0 0 0 0 0 0 0 0 0 0 0 0 0 0 0 0 0 0
0 0 0 0 0 0 0 0 0 0 0 0 0 0 0 0 0 0 0 0 0 0 0 0 0 0 0 0 0 0 0 0 0 0 0 0 0 0 0 0 0 0 0 0
0 0 0 0 0 0 0 0 0 0 0 0 0 0 0 0 0 0 0 0 0 0 0 0 0 0 0 0 0 0 0 0 0 0 0 0 0 0 0 0 0 0 0 0
0 0 0 0 0 0 0 0 0 0 0 0 0 0 0 0 0 0 0 0 0 0 0 0 0 0 0 0 0 0 0 0 0 0 0 0 0 0 0 0 0 0 0 0
0 0 0 0 0 0 0 0 0 0 0 0 0 0 0 0 0 0 0 0 0 0 0 0 0 0 0 0 0 0 0 0 0 0 0 0 0 0 0 0 0 0 0 0
0 0 0 0 0 0 0 0 0 0 0 0 0 0 0 0 0 0 0 0 0 0 0 0 0 0 0 0 0 0 0 0 0 0 0 0 0 0 0 0 0 0 0 0
0 0 0 0 0 0 0 0 0 0 0 0 0 0 0 0 0 0 0 0 0 0 0 0 0 0 0 0 0 0 0 0 0 0 0 0 0 0 0 0 0 0 0 0
0 0 0 0 0 0 0 0 0 0 0 0 0 0 0 0 0 0 0 0 0 0 0 0 0 0 0 0 0 0 0 0 0 0 0 0 0 0 0 0 0 0 0 0
0 0 0 0 0 0 0 0 0 0 0 0 0 0 0 0 0 0 0 0 0 0 0 0 0 0 0 0 0 0 0 0 0 0 0 0 0 0 0 0 0 0 0 0
0 0 0 0 0 0 0 0 0 0 0 0 0 0 0 0 0 0 0 0 0 0 0 0 0 0 0 0 0 0 0 0 0 0 0 0 0 0 0 0 0 0 0 0
0 0 0 0 0 0 0 0 0 0 0 0 0 0 0 0 0 0 0 0 0 0 0 0 0 0 0 0 0 0 0 0 0 0 0 0 0 0 0 0 0 0 0 0
0 0 0 0 0 0 0 0 0 0 0 0 0 0 0 0 0 0 0 0 0 0 0 0 0 0 0 0 0 0 0 0 0 0 0 0 0 0 0 0 0 0 0 0
0 0 0 0 0 0 0 0 0 0 0 0 0 0 0 0 0 0 0 0 0 0 0 0 0 0 0 0 0 0 0 0 0 0 0 0 0 0 0 0 0 0 0 0
0 0 0 0 0 0 0 0 0 0 0 0 0 0 0 0 0 0 0 0 0 0 0 0 0 0 0 0 0 0 0 0 0 0 0 0 0 0 0 0 0 0 0 0
0 0 0 0 0 0 0 0 0 0 0 0 0 0 0 0 0 0 0 0 0 0 0 0 0 0 0 0 0 0 0 0 0 0 0 0 0 0 0 0 0 0 0 0
0 0 0 0 0 0 0 0 0 0 0 0 0 0 0 0 0 0 0 0 0 0 0 0 0 0 0 0 0 0 0 0 0 0 0 0 0 0 0 0 0 0 0 0
0 0 0 0 0 0 0 0 0 0 0 0 0 0 0 0 0 0 0 0 0 0 0 0 0 0 0 0 0 0 0 0 0 0 0 0 0 0 0 0 0 0 0 0
0 0 0 0 0 0 0 0 0 0 0 0 0 0 0 0 0 0 0 0 0 0 0 0 0 0 0 0 0 0 0 0 0 0 0 0 0 0 0 0 0 0 0 0
0 0 0 0 0 0 0 0 0 0 0 0 0 0 0 0 0 0 0 0 0 0 0 0 0 0 0 0 0 0 0 0 0 0 0 0 0 0 0 0 0 0 0 0
0 0 0 0 0 0 0 0 0 0 0 0 0 0 0 0 0 0 0 0 0 0 0 0 0 0 0 0 0 0 0 0 0 0 0 0 0 0 0 0 0 0 0 0
Wind_Speed
11 7 8 12 16 19 22 21 18 17 18 15 10 7 6 6 6 6 7 7 8 8 8 8 8 8 9 9 9 10 10 10 10 9 9 9 9 9 8 8 8 8 8 7
10 7 9 12 17 21 24 24 24 20 20 16 11 7 7 7 8 8 8 9 9 9 9 9 9 9 9 9 9 10 10 10 9 9 9 9 9 9 8 8 8 8 8 7
7 6 6 14 19 22 22 23 23 24 21 13 11 12 13 12 12 11 9 9 10 11 11 10 10 10 10 10 9 10 10 10 10 10 10 9 9 9 9 9 8 8 7 7
5 5 12 10 8 17 20 22 21 19 15 15 16 14 13 13 12 12 11 10 10 10 10 9 8 8 8 9 9 10 10 10 10 10 10 10 10 9 9 8 8 7 7 7
5 8 10 8 7 12 16 18 17 18 17 15 11 10 13 13 13 14 12 11 10 10 9 9 9 9 9 9 9 10 10 10 11 11 11 11 11 10 9 8 7 7 6 7
6 8 9 6 4 6 10 14 11 13 15 14 11 12 13 11 13 14 12 9 8 7 8 9 10 10 10 10 10 11 11 10 10 11 11 11 10 10 8 7 7 6 6 5
11 9 9 4 2 7 11 7 4 9 12 13 15 15 9 6 9 11 10 9 8 8 9 9 10 11 11 11 11 10 9 10 10 10 10 10 9 8 8 8 7 7 6 5
9 10 10 1 4 7 4 4 3 5 7 11 14 14 10 8 8 8 8 8 8 8 8 8 10 11 11 11 9 9 10 10 10 10 9 8 10 9 9 9 8 7 6 5
8 9 3 4 6 5 5 6 6 6 7 8 10 11 10 9 9 9 8 8 8 8 8 8 10 11 11 10 10 11 11 11 10 10 9 9 10 10 9 8 6 6 5 5
8 11 10 10 10 8 7 8 9 8 8 8 9 10 9 9 8 8 8 8 8 9 9 9 9 9 9 10 11 12 12 11 10 10 9 8 7 7 7 7 7 6 6 5
12 12 10 11 10 10 10 10 10 10 9 9 10 10 9 8 8 7 7 7 8 9 10 10 9 9 9 11 13 13 12 11 10 9 9 8 6 5 5 5 5 6 6 5
12 9 9 12 11 12 12 12 12 12 11 10 9 10 9 8 6 6 7 7 8 9 9 10 10 10 10 11 13 13 12 11 9 8 8 7 7 6 5 5 6 5 5 5
16 13 14 15 16 14 13 13 13 12 12 11 9 8 7 6 5 5 7 8 10 10 10 10 10 10 10 11 12 12 12 11 9 8 8 8 7 7 7 6 7 7 7 6
16 14 16 16 15 15 14 13 12 12 11 9 8 6 5 5 4 6 7 8 8 9 10 10 11 11 10 11 12 12 11 11 10 8 8 7 7 7 6 7 6 5 5 6
17 16 16 15 16 15 13 11 11 10 8 7 6 5 5 6 6 6 6 7 9 9 10 11 11 11 11 11 12 12 10 9 8 8 7 7 7 6 6 6 5 5 4 5
15 15 16 16 17 16 13 12 11 10 8 7 6 5 5 5 5 5 6 9 11 11 11 11 11 10 11 12 12 10 8 11 10 8 8 7 6 6 6 5 5 5 4 4
16 17 16 16 16 15 13 12 11 10 8 7 6 5 5 6 6 6 7 7 7 8 9 10 10 11 11 11 11 9 9 10 11 8 7 7 6 6 5 5 4 4 3 4
17 18 17 16 14 13 12 10 9 8 7 6 5 6 7 8 8 8 8 9 9 8 7 8 10 11 11 11 9 8 8 8 7 7 7 6 6 5 5 5 5 4 3 4
17 17 17 16 14 12 11 9 8 7 6 6 7 7 7 7 7 9 10 10 11 10 8 9 13 12 11 10 10 8 8 9 8 7 6 8 6 5 5 5 4 4 3 3
14 14 14 13 11 10 10 8 7 6 6 7 7 7 7 7 8 9 10 8 5 6 9 11 11 10 10 10 10 7 8 8 8 7 6 6 5 5 4 4 4 4 3 3
11 11 11 11 10 9 8 8 7 6 6 7 8 8 8 8 8 9 9 7 6 8 10 13 9 8 8 9 10 7 8 8 7 7 6 6 5 5 4 4 4 4 3 3
8 8 9 9 8 6 4 4 4 5 7 7 7 8 9 9 9 7 5 5 8 11 9 7 7 10 11 11 7 7 7 7 6 6 5 5 5 5 4 4 4 3 3 3
5 5 5 5 5 3 3 3 4 5 7 8 9 9 9 8 7 7 7 6 8 11 8 7 11 15 15 8 6 7 7 7 6 5 5 5 4 4 4 4 3 3 3 3
4 3 1 1 3 4 4 4 4 5 6 7 6 7 8 8 6 4 6 11 12 12 7 11 16 15 12 6 6 6 6 6 5 5 5 4 4 4 4 3 3 3 3 4
2 1 1 2 3 4 5 6 7 7 8 6 7 7 5 4 5 7 8 10 13 12 8 12 15 13 8 6 6 6 5 5 5 5 4 4 4 3 3 3 3 3 3 4
1 1 1 1 2 4 5 5 5 5 6 6 6 5 6 6 8 8 7 9 11 11 8 7 8 8 5 6 5 5 5 5 5 4 4 3 3 3 3 3 4 3 3 4
2 2 2 3 4 4 4 4 5 6 5 6 7 6 6 7 7 8 9 8 8 7 6 6 6 5 5 5 5 4 4 4 3 3 3 3 3 3 3 4 3 3 3 4
Wind_Direction
258 258 221 219 213 211 215 220 227 232 235 234 228 228 228 219 207 202 199 198 196 192 186 181 180 179 176 173 172 172 174 178 181 179 178 178 178 178 179 179 178 178 178 179
251 242 229 233 222 218 221 226 232 239 241 240 244 234 229 224 214 211 209 205 202 196 192 189 185 180 176 176 174 173 175 178 175 173 174 174 174 173 172 174 174 174 176 177
246 240 240 236 220 216 218 222 226 232 236 234 236 230 228 229 228 224 221 212 206 202 199 195 188 182 180 176 170 174 175 174 173 173 173 173 169 170 172 173 172 173 176 179
252 220 228 233 222 218 224 227 228 236 241 235 235 237 236 232 230 227 222 218 214 208 202 196 185 180 173 168 171 173 174 174 174 173 171 169 169 171 171 171 172 173 176 179
231 236 250 247 225 213 217 231 228 234 241 244 247 250 244 234 232 233 232 227 216 207 198 187 181 173 166 169 171 174 177 177 175 173 170 169 171 170 168 167 167 169 171 173
223 235 237 238 211 225 215 240 235 234 237 239 229 235 240 230 230 234 235 229 215 200 189 184 178 169 170 173 176 181 180 175 172 172 170 170 169 164 160 160 159 156 159 167
224 237 257 282 253 173 197 235 236 227 235 232 225 236 258 245 235 233 230 221 206 195 193 187 173 171 176 177 184 177 167 164 165 167 167 163 158 155 153 151 150 151 150 153
212 225 239 191 169 191 240 312 294 250 247 244 243 250 254 249 240 229 219 209 199 194 190 180 175 175 177 180 171 160 157 158 159 158 153 154 151 150 152 151 150 152 152 150
219 234 271 208 227 256 294 293 293 283 271 263 261 259 256 247 240 231 220 206 198 190 178 176 180 181 177 169 159 155 154 156 153 149 149 154 153 152 152 156 156 158 160 161
248 252 262 264 261 264 275 285 294 294 284 268 263 263 257 247 240 230 217 203 190 180 177 177 178 179 170 159 157 154 154 152 150 147 147 149 149 153 157 161 161 162 165 166
252 264 275 265 262 275 288 289 289 290 287 273 267 265 257 246 236 225 212 198 188 185 180 175 168 164 161 160 156 153 151 149 147 145 144 142 141 144 156 159 166 166 168 168
247 250 257 273 281 286 288 288 289 292 291 282 268 263 258 248 234 218 204 189 183 181 174 167 163 159 160 161 159 152 149 150 148 145 143 142 138 121 91 116 125 135 146 155
256 267 270 277 282 283 283 284 287 283 279 278 272 261 251 242 223 205 196 187 182 177 169 161 158 156 158 160 158 156 152 150 147 147 147 147 147 145 136 115 115 130 141 147
256 264 267 268 273 280 282 284 284 281 277 273 269 260 237 224 207 197 193 184 171 162 158 156 153 153 156 156 153 150 146 144 145 146 148 149 151 150 148 149 149 140 139 144
252 252 258 268 273 275 278 281 280 278 277 271 258 237 214 201 196 191 174 158 153 152 154 152 150 151 153 152 149 146 145 145 142 140 142 143 143 143 145 149 149 149 151 153
256 255 257 260 264 268 270 270 270 273 275 267 251 228 208 188 167 156 156 159 157 159 157 153 150 149 150 148 144 140 139 139 139 140 140 142 144 146 149 152 155 161 169 167
251 253 253 256 260 263 263 261 261 264 265 256 240 206 171 154 148 152 154 154 147 143 146 147 145 144 146 147 141 137 136 138 138 136 140 144 147 150 152 156 163 170 174 177
247 251 253 256 258 260 261 259 254 250 248 240 207 177 170 168 167 161 148 136 128 125 132 139 139 140 141 141 137 135 136 139 141 139 139 143 145 148 152 159 167 173 172 174
247 249 251 252 252 252 254 253 247 240 231 203 186 182 175 169 158 148 143 142 143 141 143 139 138 136 135 136 133 132 134 135 134 135 138 143 145 150 157 165 171 176 177 182
248 248 249 251 249 245 245 243 234 229 211 186 173 165 159 156 151 147 145 143 143 137 139 140 137 133 133 134 130 130 134 137 138 140 144 150 153 157 162 167 173 178 185 195
248 247 245 244 244 241 239 235 223 210 185 172 169 165 154 146 145 144 143 135 125 128 135 137 135 134 133 134 129 131 135 138 141 146 150 153 156 160 165 171 178 185 193 202
260 251 244 238 233 232 225 210 193 172 157 154 149 143 140 141 142 135 125 130 136 138 136 135 132 133 137 134 131 134 137 139 142 146 151 156 161 166 172 179 186 193 202 211
283 271 255 238 218 188 141 143 150 149 149 149 149 150 148 145 146 143 136 133 138 140 135 133 136 137 135 129 131 135 139 143 146 151 155 160 166 172 178 186 194 200 210 218
302 301 295 134 126 128 129 123 117 116 118 121 129 137 139 134 125 113 118 135 138 134 130 135 138 138 133 129 133 137 141 144 147 150 154 160 167 176 184 191 201 210 218 227
318 334 92 132 138 133 123 116 110 109 108 109 112 114 115 118 125 129 128 134 135 130 127 137 138 135 130 131 135 138 142 148 151 154 162 168 175 182 190 197 205 214 222 229
348 50 90 101 113 119 125 126 123 120 118 115 110 107 105 105 114 120 122 128 130 127 127 133 137 133 131 133 136 139 142 148 151 156 165 171 181 190 197 204 214 223 229 236
53 77 89 91 92 104 115 120 121 123 126 127 121 118 118 118 119 120 121 124 127 125 126 128 130 130 131 133 135 138 141 146 152 159 166 175 186 197 202 212 223 229 235 240